Change the Weather History Date:

Thursday, July 19, 2012

  Actual Average Record
Temperature  
Mean Temperature 77 °F 72 °F  
Max Temperature 88 °F 84 °F 106 °F (1932)
Min Temperature 65 °F 60 °F 45 °F (2000)
Degree Days  
Heating Degree Days 0 0  
Month to date heating degree days 0 3  
Since 1 June heating degree days 27 65  
Since 1 July heating degree days 0 3  
Cooling Degree Days 12 7  
Month to date cooling degree days 218 122  
Year to date cooling degree days 437 239  
Since 1 June cooling degree days 379 216  
Growing Degree Days 26 (Base 50)    
Moisture  
Dew Point 71 °F    
Average Humidity 84    
Maximum Humidity 100    
Minimum Humidity 68    
Precipitation  
Precipitation 0.00 in 0.13 in 1.55 in (1962)
Month to date precipitation 0.46 2.29  
Year to date precipitation 11.36 13.01  
Sea Level Pressure  
Sea Level Pressure 29.91 in    
Wind  
Wind Speed 7 mph (SSE)    
Max Wind Speed 17 mph    
Max Gust Speed 22 mph    
T = Trace of Precipitation, MM = Missing Value Source: NWS Daily Summary

Daily Weather History Graph

Daily Weather History Graph

Search for Another Location

Airport or City:

Trip Planner

Search our weather history database for the weather conditions in past years. The results will help you decide how hot, cold, wet, or windy it might be!

Date:

Astronomy

Jul. 19, 2012 Rise Set
Actual Time 5:57 AM CDT 9:10 PM CDT
Civil Twilight 5:21 AM CDT 9:46 PM CDT
Nautical Twilight 4:34 AM CDT 10:32 PM CDT
Astronomical Twilight 3:36 AM CDT 11:30 PM CDT
Moon 6:38 AM CDT (7/19) 9:10 PM CDT (7/19)
Length of Visible Light 16h 24m
Length of Day
15h 12m
New Moon, 0% of the Moon is Illuminated
Jul 19
New Moon
Jul 26
First Quarter
Aug 1
Full
Aug 9
Last Quarter
Aug 17
New

Hourly Weather History & Observations

Time (CDT) Temp. Heat Index Dew Point Humidity Pressure Visibility Wind Dir Wind Speed Gust Speed Precip Events Conditions
12:56 AM 68.0 °F - 66.9 °F 96% 29.87 in - Calm Calm - N/A   Unknown
1:56 AM 66.0 °F - 66.0 °F 100% 29.88 in - Calm Calm - N/A   Unknown
2:56 AM 66.0 °F - 64.9 °F 96% 29.89 in - Calm Calm - N/A   Unknown
3:56 AM 66.0 °F - 64.9 °F 96% 29.89 in - Calm Calm - N/A   Unknown
4:56 AM 64.9 °F - 64.0 °F 97% 29.89 in - Calm Calm - N/A   Unknown
5:56 AM 64.9 °F - 64.0 °F 97% 29.90 in - Calm Calm - N/A   Unknown
6:56 AM 66.0 °F - 66.0 °F 100% 29.92 in - Calm Calm - N/A   Unknown
7:56 AM 69.1 °F - 68.0 °F 96% 29.93 in - South 3.5 mph - N/A   Unknown
8:56 AM 72.0 °F - 71.1 °F 97% 29.95 in - SSE 6.9 mph - N/A   Unknown
9:56 AM 77.0 °F - 72.0 °F 84% 29.94 in - SE 8.1 mph - N/A   Unknown
10:56 AM 81.0 °F 85.8 °F 73.0 °F 77% 29.94 in - SSE 6.9 mph - N/A   Unknown
11:56 AM 82.9 °F 90.2 °F 75.0 °F 77% 29.94 in - SE 9.2 mph - N/A   Unknown
12:56 PM 84.0 °F 91.9 °F 75.0 °F 74% 29.94 in - SSE 10.4 mph - N/A   Unknown
1:56 PM 86.0 °F 95.1 °F 75.0 °F 70% 29.94 in - SSE 11.5 mph - N/A   Unknown
2:56 PM 86.0 °F 95.1 °F 75.0 °F 70% 29.93 in - SSE 11.5 mph - N/A   Unknown
3:56 PM 87.1 °F 96.3 °F 75.0 °F 67% 29.92 in - SSE 12.7 mph - N/A   Unknown
4:56 PM 86.0 °F 95.1 °F 75.0 °F 70% 29.91 in - SSE 13.8 mph - N/A   Unknown
5:56 PM 87.1 °F 96.3 °F 75.0 °F 67% 29.89 in - SSE 12.7 mph - N/A   Unknown
6:56 PM 86.0 °F 95.1 °F 75.0 °F 70% 29.88 in - SSE 13.8 mph - N/A   Unknown
7:56 PM 84.9 °F 92.1 °F 73.9 °F 69% 29.88 in - SSE 9.2 mph - N/A   Unknown
8:56 PM 80.1 °F 85.1 °F 75.0 °F 85% 29.90 in - SSE 6.9 mph - N/A   Unknown
9:56 PM 78.1 °F - 73.9 °F 87% 29.92 in - South 5.8 mph - N/A   Unknown
10:56 PM 77.0 °F - 73.0 °F 88% 29.92 in - SSE 6.9 mph - N/A   Unknown
11:56 PM 75.9 °F - 73.0 °F 91% 29.91 in - South 9.2 mph - N/A   Unknown